Pardee Reservoir Weather Center

Moon Phase Calendar



Pardee Reservoir Water Level
Online Cameras

 


      

Current Conditions in Valley Springs
7/24/2021 10:40:04 PM

80°F
Feels Like 79
Clear
Humidity
24%
Pressure
29.97"
Wind
3.4 mph (N)
Dew Point
40°F
UV Index
0/10 (Low)
Visibility
6 mi

Hourly Forecast

Date & Time Sat, Jul 24
10:00 PM
Sat, Jul 24
11:00 PM
Sun, Jul 25
12:00 AM
Sun, Jul 25
1:00 AM
Sun, Jul 25
2:00 AM
Sun, Jul 25
3:00 AM
Sun, Jul 25
4:00 AM
Sun, Jul 25
5:00 AM
Sun, Jul 25
6:00 AM
Sun, Jul 25
7:00 AM
Sun, Jul 25
8:00 AM
Sun, Jul 25
9:00 AM
Sun, Jul 25
10:00 AM
Sun, Jul 25
11:00 AM
Sun, Jul 25
12:00 PM
Sun, Jul 25
1:00 PM
Sun, Jul 25
2:00 PM
Sun, Jul 25
3:00 PM
Sun, Jul 25
4:00 PM
Sun, Jul 25
5:00 PM
Sun, Jul 25
6:00 PM
Sun, Jul 25
7:00 PM
Sun, Jul 25
8:00 PM
Sun, Jul 25
9:00 PM
Sun, Jul 25
10:00 PM
Sun, Jul 25
11:00 PM
Mon, Jul 26
12:00 AM
Mon, Jul 26
1:00 AM
Mon, Jul 26
2:00 AM
Mon, Jul 26
3:00 AM
Mon, Jul 26
4:00 AM
Mon, Jul 26
5:00 AM
Mon, Jul 26
6:00 AM
Mon, Jul 26
7:00 AM
Mon, Jul 26
8:00 AM
Mon, Jul 26
9:00 AM
Mon, Jul 26
10:00 AM
Mon, Jul 26
11:00 AM
Mon, Jul 26
12:00 PM
Mon, Jul 26
1:00 PM
Mon, Jul 26
2:00 PM
Mon, Jul 26
3:00 PM
Mon, Jul 26
4:00 PM
Mon, Jul 26
5:00 PM
Mon, Jul 26
6:00 PM
Mon, Jul 26
7:00 PM
Mon, Jul 26
8:00 PM
Mon, Jul 26
9:00 PM
Condition
Clear

Clear

Clouds

Clouds

Clouds

Clouds

Clouds

Clouds

Clouds

Clouds

Clouds

Clouds

Clouds

Clouds

Clouds

Clouds

Clouds

Clouds

Clouds

Clouds

Clouds

Clouds

Clouds

Clouds

Clouds

Clouds

Clouds

Clouds

Clouds

Clouds

Clouds

Clouds

Clouds

Clouds

Clouds

Clouds

Clouds

Clouds

Clouds

Clouds

Clouds

Clouds

Clouds

Clouds

Clouds

Clouds

Clouds

Clouds
Temperature 79°F80°F79°F77°F75°F73°F70°F69°F68°F71°F78°F82°F86°F89°F93°F96°F99°F100°F100°F100°F97°F92°F83°F75°F73°F73°F72°F70°F70°F70°F69°F69°F69°F71°F76°F80°F85°F89°F92°F95°F98°F99°F99°F99°F96°F89°F80°F74°F
Feels Like 79°F79°F77°F76°F73°F71°F68°F67°F66°F69°F76°F80°F83°F86°F89°F91°F94°F95°F95°F95°F92°F87°F80°F73°F71°F72°F70°F68°F68°F68°F67°F67°F67°F69°F75°F79°F82°F85°F88°F90°F93°F94°F94°F94°F92°F85°F79°F72°F
Cloudiness 1%1%20%40%60%79%99%99%16%16%37%48%58%60%34%22%20%19%18%19%38%41%44%52%50%55%99%99%100%100%97%97%100%98%98%99%99%96%100%99%87%74%75%78%98%99%99%99%
Visibility 6 mi6 mi6 mi6 mi6 mi6 mi6 mi6 mi6 mi6 mi6 mi6 mi6 mi6 mi6 mi6 mi6 mi6 mi6 mi6 mi6 mi6 mi6 mi6 mi6 mi6 mi6 mi6 mi6 mi6 mi6 mi6 mi6 mi6 mi6 mi6 mi6 mi6 mi6 mi6 mi6 mi6 mi6 mi6 mi6 mi6 mi6 mi6 mi
Precipitation 0%0%0%0%0%0%0%0%0%0%0%0%0%0%0%0%0%0%0%0%0%0%0%0%0%0%0%0%0%0%0%0%0%0%0%0%0%0%0%0%0%0%3%3%0%0%0%0%
Humidity 26%24%26%28%29%31%33%34%35%33%27%23%19%16%14%12%11%11%11%11%12%13%17%22%23%23%24%27%28%28%29%30%33%33%28%23%19%16%14%13%12%12%12%13%14%18%21%25%
Dew Point 41°F40°F41°F41°F40°F40°F38°F38°F38°F39°F39°F38°F37°F37°F36°F36°F36°F36°F36°F37°F35°F33°F33°F33°F33°F32°F33°F34°F34°F34°F34°F35°F37°F39°F38°F37°F36°F36°F36°F36°F36°F37°F38°F39°F40°F39°F36°F35°F
Pressure 29.94"29.97"29.94"29.94"29.91"29.91"29.88"29.88"29.88"29.91"29.91"29.91"29.91"29.88"29.88"29.85"29.83"29.83"29.8"29.8"29.8"29.8"29.83"29.83"29.85"29.85"29.85"29.85"29.83"29.83"29.83"29.83"29.83"29.83"29.85"29.85"29.85"29.85"29.85"29.83"29.83"29.8"29.8"29.8"29.8"29.8"29.85"29.88"
Wind Speed 4.5 mph4.1 mph3.6 mph3.5 mph4.3 mph4.5 mph5.4 mph5 mph5.1 mph4.2 mph4.4 mph5.2 mph6.5 mph7.3 mph7.4 mph7.6 mph8 mph8 mph7.5 mph8.9 mph10.7 mph9.1 mph6.6 mph4.4 mph4.1 mph3.8 mph2 mph2.1 mph4.7 mph4.2 mph4.8 mph5.4 mph5.1 mph4.2 mph4.4 mph4.9 mph5.6 mph5.8 mph5.6 mph6.5 mph6.1 mph7.1 mph7.7 mph7.1 mph9.4 mph10.2 mph7.4 mph5.6 mph
Wind
Direction
36°
NE
29°
NNE
39°
NE
31°
NNE
25°
NNE
18°
NNE
14°
NNE
12°
NNE

N

N
322°
NW
309°
NW
297°
WNW
285°
WNW
284°
WNW
289°
WNW
297°
WNW
298°
WNW
289°
WNW
294°
WNW
300°
WNW
299°
WNW
309°
NW
346°
NNW
27°
NNE
32°
NNE
344°
NNW
16°
NNE
25°
NNE
22°
NNE
20°
NNE
13°
NNE
10°
N
356°
N
325°
NW
307°
NW
300°
WNW
281°
W
269°
W
264°
W
258°
WSW
255°
WSW
251°
WSW
272°
W
289°
WNW
300°
WNW
303°
WNW

N

Daily Forecast

Date High Low Precip. Humidity
Today
Jul 24

Clear
102 °F
68 °F
0%
16%
Sunday
Jul 25

Clouds
100 °F
68 °F
0%
12%
Monday
Jul 26

Clouds
99 °F
69 °F
3%
12%
Tuesday
Jul 27

Clouds
101 °F
73 °F
0%
13%
Wednesday
Jul 28

Clouds
102 °F
73 °F
7%
20%
Thursday
Jul 29

Clear
109 °F
71 °F
0%
12%
Friday
Jul 30

Clear
111 °F
73 °F
0%
10%
Saturday
Jul 31

Clouds
106 °F
73 °F
0%
10%
Sunday
Aug 1

Clouds
104 °F
74 °F
0%
9%
Monday
Aug 2

Clear
101 °F
67 °F
0%
10%
Tuesday
Aug 3

Clouds
93 °F
61 °F
0%
14%
Wednesday
Aug 4

Clear
98 °F
62 °F
0%
12%
Thursday
Aug 5

Clear
101 °F
64 °F
0%
10%
Friday
Aug 6

Clear
107 °F
68 °F
0%
8%
Saturday
Aug 7

Clear
109 °F
72 °F
0%
6%
Sunday
Aug 8

Clear
107 °F
74 °F
0%
9%

Temperature 8-14 Day Outlook



Precipitation 8-14 Day Outlook




Quick Links
Pardee Reservoir News
Pardee Reservoir Photos
Pardee Reservoir Videos




About Us
Contact Us
Site Map
Search Site
Advertise With Us
   
PardeeReservoir.LakesOnline.com
THE PARDEE RESERVOIR WEBSITE

Copyright 2021, Lakes Online
Privacy    |    Legal